Wind_Speed
22 25 27 28 31 33 34 34 34 35 36 39 40 41 42 44 45 46 47 48 47 47 47 47 46 45 43 43 42 41 40 39 38 37 36 36 35 35 34 33 33 32 32 32
21 23 24 25 28 31 33 33 33 34 35 37 39 39 40 43 44 44 46 48 47 47 48 47 46 46 44 44 43 42 40 40 39 38 37 36 36 35 34 34 33 33 33 33
20 21 23 25 27 30 32 33 32 32 34 35 37 38 38 40 42 44 46 47 47 47 47 47 46 46 45 44 43 42 41 40 40 38 38 37 36 36 35 35 34 35 34 34
19 21 23 24 26 28 31 32 31 31 32 34 36 37 37 38 40 43 45 47 48 47 47 47 46 46 46 45 44 43 43 42 41 40 39 38 37 37 37 36 35 35 35 35
19 22 23 23 25 27 29 31 30 30 32 33 35 36 36 37 39 40 42 45 47 48 47 47 46 46 46 46 45 44 43 43 42 41 40 40 39 39 38 38 37 37 37 37
16 20 22 22 23 26 28 30 30 29 30 32 33 34 35 35 36 38 41 42 45 47 48 47 46 46 46 46 46 45 44 43 43 42 42 41 40 40 40 39 38 38 38 38
14 18 21 22 23 25 27 29 30 30 30 32 32 34 35 34 35 37 39 41 43 45 47 48 47 46 46 46 45 45 45 44 44 43 42 42 41 41 41 41 40 40 39 39
13 15 18 20 23 25 26 27 29 30 32 32 31 34 34 34 35 35 37 39 41 44 46 47 47 46 46 46 45 45 45 44 44 44 43 43 43 43 43 42 42 41 41 40
13 13 15 18 20 23 25 26 28 29 30 31 31 32 33 33 33 35 36 38 39 41 43 45 46 47 46 46 46 45 45 45 45 44 45 44 44 43 43 43 43 42 41 40
13 14 14 16 18 21 23 25 26 27 29 30 29 29 30 30 31 32 34 36 38 39 41 43 44 45 46 46 45 45 46 46 45 45 45 45 45 44 44 44 43 42 42 42
13 15 15 15 16 20 22 22 25 27 28 29 31 30 29 30 30 31 33 35 36 38 39 41 43 44 45 46 46 46 46 46 46 46 46 45 45 45 45 45 44 43 42 42
14 16 16 16 17 18 20 21 23 26 28 28 30 30 28 28 29 30 32 34 35 37 39 40 40 43 44 46 46 46 46 46 46 46 46 46 46 46 45 44 44 44 43 43
14 16 17 17 18 19 19 21 22 24 26 27 28 28 27 27 27 28 31 33 35 37 38 39 39 40 43 45 46 46 46 46 46 47 47 46 46 46 45 45 44 44 44 44
14 15 17 18 18 20 20 21 22 23 26 26 27 27 27 27 27 27 30 31 33 36 37 39 39 40 42 44 46 46 46 46 46 47 47 47 46 46 46 46 46 45 45 45
15 16 16 17 18 19 20 21 23 23 24 27 26 27 27 27 27 28 29 31 32 33 36 38 39 40 41 44 45 46 46 46 46 46 47 47 47 46 46 46 46 46 45 45
14 17 17 17 19 20 21 22 23 25 26 27 28 29 28 28 29 29 29 30 32 33 34 36 38 39 40 42 45 47 46 46 47 46 46 47 47 47 47 46 46 45 45 45
13 15 17 17 20 22 22 22 25 26 27 27 28 28 28 28 28 29 29 30 31 32 33 35 37 38 39 41 43 44 45 46 46 46 47 47 47 48 48 48 47 46 46 45
14 15 17 18 19 22 22 22 24 26 27 28 29 30 29 30 30 30 30 31 31 32 33 35 36 37 38 40 42 43 44 44 45 46 46 47 47 47 47 47 48 47 47 46
14 16 18 19 20 21 20 22 24 26 28 28 29 29 30 31 32 31 31 31 32 33 33 35 36 37 37 38 40 42 43 43 44 45 45 46 46 46 47 48 48 48 48 47
15 15 17 18 20 21 21 23 25 27 27 28 29 29 30 30 30 30 30 31 32 33 33 34 36 37 38 38 39 40 41 42 44 45 45 45 46 46 47 47 48 48 48 49
16 16 16 18 20 20 21 22 24 25 27 28 29 30 30 30 30 30 30 31 32 33 33 34 35 36 36 37 38 40 41 42 44 45 45 44 45 46 47 47 47 47 48 48
18 18 18 19 20 20 19 21 22 24 25 27 28 29 29 30 31 31 31 30 31 32 33 34 35 36 36 37 37 38 40 41 42 43 44 44 45 45 46 47 46 46 46 46
18 18 19 20 20 20 20 20 22 23 24 25 27 28 29 30 30 31 31 31 31 31 32 33 35 36 36 37 37 37 38 40 41 42 42 43 43 44 44 45 44 44 44 45
18 19 20 20 20 20 21 21 21 22 23 23 24 25 27 28 30 30 31 31 31 31 32 32 33 35 36 36 37 38 38 39 39 40 40 41 42 43 44 44 44 44 44 44
18 19 19 19 20 20 20 21 22 23 23 23 23 24 25 26 27 28 28 29 29 30 32 33 34 35 36 36 37 37 38 39 40 40 41 41 41 42 42 43 43 43 43 44
19 20 19 19 19 20 20 21 22 23 23 23 23 24 24 25 26 27 27 28 28 28 30 32 33 34 35 36 37 38 39 40 40 41 41 40 40 41 41 41 41 42 43 44
Wind_Direction
236 231 231 233 232 232 228 229 230 229 231 232 233 233 231 231 231 230 229 229 229 229 230 230 230 231 232 233 234 236 237 237 239 240 242 244 246 248 249 250 252 254 257 259
234 228 227 228 231 230 228 229 230 231 232 233 233 233 231 230 231 230 229 229 228 228 229 229 229 230 231 233 234 236 237 238 239 240 242 244 246 248 250 251 252 255 257 260
234 227 225 227 228 229 229 231 232 232 232 235 235 233 231 231 232 230 230 228 228 228 228 229 230 230 231 233 234 235 237 238 238 240 242 244 246 247 249 251 253 255 258 260
231 227 227 227 229 232 231 231 233 233 234 235 235 235 231 232 232 231 230 228 227 227 227 228 229 231 232 232 233 235 236 237 239 240 242 244 246 248 249 252 254 256 259 261
234 228 228 230 231 234 233 232 234 236 237 237 237 238 233 232 231 231 231 230 228 227 227 228 229 231 232 232 233 234 236 237 239 240 242 245 246 248 250 252 254 257 259 261
237 229 229 231 233 235 232 232 235 238 239 240 238 240 237 234 233 232 232 231 230 229 227 228 230 230 232 233 233 234 235 237 239 241 243 245 247 248 250 252 254 257 259 261
237 235 231 231 231 232 232 233 235 237 238 241 241 241 239 237 235 233 232 231 230 230 228 228 229 231 233 234 235 235 235 237 240 241 243 245 247 249 251 253 255 257 259 262
244 239 236 234 233 233 234 235 236 238 239 240 240 241 240 238 237 234 231 231 232 231 229 229 230 230 232 234 235 235 236 237 240 241 243 245 247 249 251 254 256 258 260 262
250 248 243 240 239 234 232 233 235 239 240 241 241 241 240 240 238 236 233 231 231 232 232 231 231 231 232 234 236 237 237 238 240 241 243 245 247 249 252 254 256 257 259 261
254 250 248 245 241 234 231 234 234 236 239 241 242 242 243 240 239 238 235 233 234 235 234 233 233 234 233 234 236 238 239 239 240 241 243 245 247 249 252 254 256 257 258 260
260 256 252 250 243 233 228 230 233 237 240 242 243 245 244 244 244 241 237 235 235 236 237 237 235 235 235 235 236 238 239 240 240 241 243 245 247 249 251 253 255 256 258 260
266 260 257 251 243 234 234 233 234 236 241 245 246 247 245 247 247 245 241 238 238 237 238 238 237 236 237 236 236 237 239 239 240 241 243 245 247 249 251 253 255 257 259 261
268 260 258 252 242 237 239 236 238 240 242 244 246 246 245 246 246 246 244 241 239 237 238 238 238 238 237 237 236 237 238 239 240 241 243 245 247 249 252 253 256 258 259 260
271 263 260 258 250 246 244 241 241 243 243 244 247 248 248 250 249 247 245 244 241 239 238 238 238 238 238 237 237 237 237 238 240 242 243 244 247 249 252 253 256 258 259 260
269 265 262 255 250 252 249 245 246 247 246 247 248 248 249 250 252 249 248 247 243 240 239 238 238 237 238 238 237 237 237 238 239 241 243 244 247 249 251 253 256 257 258 261
274 267 264 259 253 253 251 247 247 249 250 251 251 251 251 252 252 251 250 248 245 241 239 239 238 237 238 238 238 237 237 238 240 241 243 244 246 248 250 252 254 257 259 261
280 271 265 263 259 256 253 251 251 252 252 253 253 252 251 251 252 252 250 249 245 242 241 240 239 238 238 238 239 239 239 240 241 242 244 246 247 248 250 252 255 257 259 262
286 279 273 269 264 260 258 255 255 255 254 254 254 253 252 252 252 253 252 249 245 243 242 242 241 240 239 239 238 239 240 241 242 244 245 246 248 249 250 253 255 257 259 261
292 286 280 274 268 264 264 260 259 258 257 256 256 255 254 254 253 252 252 251 248 245 243 242 241 242 242 241 240 240 241 242 243 244 246 248 249 250 253 254 255 257 259 261
300 293 286 280 274 270 269 267 264 261 259 258 257 256 256 255 255 254 254 253 252 247 245 243 242 242 243 244 243 241 241 242 243 245 246 247 249 251 254 256 257 258 260 262
298 293 287 284 280 276 272 270 267 264 262 260 258 258 258 256 256 255 254 253 252 248 245 244 242 242 243 245 245 244 243 243 244 245 247 249 249 251 253 255 257 258 260 262
295 293 290 285 283 281 278 273 269 268 266 263 261 260 259 258 258 256 254 253 252 250 247 245 244 244 245 246 246 246 245 245 245 246 247 249 251 252 254 255 256 259 261 263
296 292 289 287 284 282 280 277 274 272 270 267 264 261 259 258 257 256 255 254 254 252 250 246 246 246 246 247 247 246 246 246 246 247 248 251 253 254 255 256 258 260 262 264
298 294 290 287 284 280 278 277 277 275 273 270 267 263 260 259 257 255 255 255 255 253 251 248 247 247 246 247 247 247 248 248 249 250 252 254 255 256 257 259 261 262 264 266
301 297 294 291 288 284 280 278 276 274 274 273 270 268 265 264 260 258 257 257 255 253 250 249 249 249 248 248 248 248 248 249 250 251 253 255 257 258 259 261 262 264 266 268
301 299 296 294 292 290 288 283 279 276 273 273 271 269 268 266 263 260 258 257 257 256 254 253 252 251 250 250 250 249 250 251 250 252 253 255 257 258 260 262 264 266 267 270
Height
5644 5648 5651 5656 5660 5665 5669 5673 5678 5683 5687 5691 5695 5701 5707 5712 5717 5723 5729 5735 5742 5748 5754 5760 5765 5770 5775 5780 5784 5789 5793 5796 5800 5803 5806 5808 5811 5813 5815 5817 5819 5820 5821 5822
5639 5643 5648 5651 5654 5657 5662 5666 5671 5676 5680 5683 5687 5692 5698 5703 5708 5714 5719 5726 5732 5739 5744 5750 5756 5761 5767 5772 5776 5780 5785 5789 5792 5795 5798 5801 5803 5806 5808 5810 5811 5813 5814 5815
5635 5640 5642 5645 5648 5651 5656 5660 5665 5669 5673 5675 5679 5684 5689 5694 5699 5704 5710 5716 5722 5729 5735 5741 5747 5753 5758 5763 5768 5772 5776 5780 5784 5787 5790 5793 5795 5798 5800 5802 5804 5805 5806 5807
5630 5633 5636 5639 5643 5646 5651 5655 5658 5662 5665 5668 5672 5675 5682 5686 5690 5696 5701 5706 5713 5719 5725 5731 5737 5743 5749 5755 5759 5763 5767 5772 5776 5779 5782 5785 5788 5791 5793 5794 5796 5797 5798 5799
5625 5628 5631 5635 5639 5642 5646 5649 5652 5655 5658 5661 5664 5667 5674 5678 5683 5688 5693 5698 5704 5710 5716 5722 5728 5734 5740 5745 5750 5754 5758 5763 5767 5770 5774 5777 5780 5782 5784 5786 5788 5789 5790 5791
5621 5623 5626 5630 5633 5636 5639 5643 5645 5648 5650 5654 5658 5660 5666 5671 5676 5681 5685 5690 5695 5701 5708 5714 5719 5725 5730 5735 5740 5745 5749 5754 5758 5762 5765 5768 5771 5773 5775 5777 5779 5780 5782 5783
5616 5619 5621 5624 5627 5630 5632 5636 5638 5640 5642 5647 5651 5653 5659 5664 5668 5673 5677 5682 5687 5692 5699 5705 5711 5716 5721 5726 5731 5736 5740 5745 5749 5753 5756 5759 5761 5764 5766 5768 5770 5772 5773 5774
5613 5615 5616 5618 5621 5623 5627 5630 5633 5635 5637 5641 5644 5646 5652 5657 5661 5664 5669 5674 5679 5684 5690 5696 5702 5707 5712 5717 5722 5726 5731 5736 5739 5743 5747 5749 5752 5755 5757 5759 5761 5762 5763 5764
5610 5612 5613 5614 5616 5619 5621 5624 5627 5629 5631 5634 5636 5641 5645 5649 5653 5657 5662 5666 5671 5676 5681 5687 5693 5698 5703 5707 5712 5717 5721 5725 5729 5733 5737 5740 5742 5745 5747 5749 5751 5753 5754 5755
5607 5608 5610 5611 5612 5614 5617 5619 5621 5623 5625 5627 5630 5634 5638 5642 5646 5651 5654 5659 5663 5668 5672 5677 5683 5688 5693 5697 5702 5706 5711 5715 5719 5723 5726 5729 5732 5735 5737 5739 5741 5743 5744 5745
5604 5605 5607 5607 5608 5610 5612 5615 5616 5618 5620 5622 5624 5630 5633 5636 5640 5643 5647 5650 5654 5659 5663 5668 5672 5677 5682 5687 5691 5696 5700 5704 5708 5712 5716 5719 5722 5724 5727 5729 5731 5732 5734 5735
5600 5601 5602 5603 5604 5606 5608 5610 5612 5614 5616 5617 5619 5626 5627 5630 5633 5636 5639 5642 5646 5650 5653 5657 5661 5667 5671 5676 5681 5685 5690 5694 5698 5702 5705 5708 5711 5714 5716 5718 5720 5722 5723 5725
5597 5597 5598 5599 5602 5602 5603 5605 5607 5609 5611 5612 5614 5620 5620 5623 5626 5628 5631 5634 5637 5641 5644 5647 5652 5656 5660 5665 5669 5674 5679 5683 5687 5691 5695 5698 5701 5703 5706 5708 5710 5711 5713 5714
5593 5593 5595 5596 5596 5597 5599 5601 5602 5604 5605 5606 5609 5612 5615 5617 5619 5621 5624 5626 5629 5632 5635 5638 5642 5646 5650 5654 5659 5663 5668 5672 5676 5680 5683 5687 5690 5692 5695 5697 5699 5700 5702 5703
5589 5589 5590 5591 5592 5593 5594 5596 5597 5598 5599 5601 5603 5606 5608 5610 5612 5613 5616 5618 5621 5623 5626 5629 5633 5636 5640 5644 5648 5652 5657 5661 5665 5668 5672 5675 5678 5681 5683 5686 5688 5689 5690 5692
5585 5585 5585 5586 5587 5588 5589 5591 5592 5593 5594 5595 5596 5599 5602 5602 5604 5606 5608 5610 5612 5615 5618 5620 5623 5626 5630 5633 5637 5641 5645 5649 5653 5657 5661 5664 5667 5670 5672 5674 5676 5677 5679 5680
5581 5581 5581 5582 5582 5582 5584 5586 5586 5587 5588 5589 5590 5593 5594 5595 5596 5598 5600 5602 5604 5606 5609 5611 5613 5616 5620 5623 5627 5631 5635 5638 5642 5646 5649 5652 5655 5658 5660 5662 5664 5666 5667 5668
5577 5576 5576 5576 5577 5577 5581 5579 5580 5580 5582 5582 5583 5584 5586 5587 5588 5590 5591 5593 5595 5597 5599 5602 5604 5607 5610 5613 5617 5620 5624 5628 5631 5635 5638 5641 5644 5646 5648 5650 5652 5654 5655 5656
5572 5571 5570 5570 5569 5570 5573 5573 5572 5573 5574 5575 5575 5576 5577 5578 5579 5582 5583 5584 5585 5587 5590 5592 5594 5597 5600 5603 5606 5610 5613 5616 5620 5623 5626 5629 5632 5634 5636 5638 5640 5642 5643 5644
5568 5567 5566 5565 5563 5564 5567 5566 5564 5566 5566 5567 5567 5568 5568 5569 5571 5573 5574 5574 5576 5578 5580 5582 5585 5587 5590 5593 5596 5599 5602 5605 5609 5611 5614 5617 5620 5622 5624 5626 5628 5629 5630 5631
5564 5562 5561 5559 5557 5557 5559 5558 5557 5559 5560 5559 5559 5559 5560 5561 5562 5564 5565 5566 5567 5569 5571 5573 5575 5578 5580 5583 5586 5589 5591 5594 5597 5600 5603 5605 5608 5610 5612 5614 5616 5617 5618 5619
5559 5557 5556 5554 5552 5555 5552 5551 5552 5551 5551 5550 5551 5551 5552 5553 5554 5555 5556 5557 5558 5560 5562 5564 5566 5569 5571 5574 5576 5578 5581 5584 5586 5589 5591 5594 5596 5598 5600 5602 5603 5604 5605 5606
5553 5552 5550 5549 5549 5547 5545 5544 5544 5543 5543 5542 5543 5543 5544 5544 5545 5546 5547 5548 5549 5551 5553 5555 5557 5559 5562 5563 5566 5568 5570 5573 5575 5578 5580 5582 5584 5586 5587 5589 5590 5591 5592 5593
5548 5546 5544 5542 5541 5540 5539 5538 5538 5537 5536 5535 5535 5535 5535 5536 5536 5537 5538 5539 5541 5542 5544 5545 5547 5549 5552 5553 5555 5558 5560 5562 5564 5567 5569 5571 5572 5574 5575 5577 5578 5579 5580 5581
5543 5540 5538 5536 5535 5534 5533 5532 5531 5530 5529 5528 5528 5527 5527 5527 5528 5529 5530 5531 5531 5533 5534 5536 5537 5539 5541 5543 5545 5547 5549 5551 5553 5555 5557 5559 5561 5562 5564 5565 5566 5567 5568 5568
5537 5535 5533 5531 5530 5528 5527 5525 5524 5522 5522 5521 5520 5520 5519 5519 5519 5520 5521 5522 5523 5524 5525 5526 5527 5529 5530 5532 5533 5535 5537 5540 5542 5544 5546 5548 5549 5551 5552 5553 5554 5554 5555 5555